Back to catalog

STARLINK-37516

AliveCommunicationsSSO
NORAD 68915·PAYLOAD·🇺🇸 United States

Launched Apr 30, 2026 from Vandenberg Space Force Base

Loading…

Next Passes (next 24 hours)

TLE

FreshSource: CelesTrak SupGP

Epoch: Sep 14, 2026, 22:41 UTC

1 68915C 26097W   26257.94562500  .00085875  00000+0  26659-2 0  2575
2 68915  97.2851  92.2348 0001948  96.6757 315.2873 15.33393023    15

Track STARLINK-37516 in real time with AllMySat

Download on the App Store